THORAD AGENA D DEB

Satellite information

Favourite Embed

Satellite Type and Status

DEBRISIN ORBIT

Key statistics

Satellite THORAD AGENA D DEB at a glance.

Uptime

20433

Days in orbit

Revolutions

≈ 14.3

Per day

Orbit

LEO

Low Earth Orbit

Inclination

70.1

Latest

Satellite identification and parameters

Extended collection of information and parameters for THORAD AGENA D DEB.

Object identification

Identified? True

Debris? True

Object name: THORAD AGENA D DEB

International designator: 1969-082DZ

Object number (NORAD): 4326

Object ID (CCSDS): 4326

Country: UNITED STATES OF AMERICA (US)

Current information (Y/N): Y

RCS size: SMALL

Orbital parameters

Period: 100.608 minutes

Inclination: 70.0564 deg

SMA: 7165.525 km

Apoapsis: 834.348 km

Periapsis: 740.431 km

RAAN: 28.9704 deg

Eccentricy: 0.00655338

Argument of periapsis: 185.9923 deg

Mean anomaly: 174.0426 deg

Mean motion: 14.31300319 rev/day

Mean motion (dot): 0.00001058 rev/day2

B* drag term: 0.00041143472 1/REarth

Two-line elements (TLE)

Creation date: Sept. 8, 2025, 6:18 p.m.

Reference frame: TEME

Reference center: EARTH

Epoch: Sept. 8, 2025, 1:18 p.m. UTC

TLE line 0: 0 THORAD AGENA D DEB

TLE line 1: 1 04326U 69082DZ 25251.55433980 .00001058 00000-0 41143-3 0 9992

TLE line 2: 2 04326 70.0564 28.9704 0065534 185.9923 174.0426 14.31300319897147

Live tracking on map

Real-time ground track for satellite THORAD AGENA D DEB.

In-orbit conjunctions

A list of the most updated potential collisions computed for object THORAD AGENA D DEB.

Target Orbit TCA Probability of collision Miss distance Type
CZ-6A DEB SSO 2025-01-08 11:53:35 0.0001104561 70.0 (m) DEBRIS
FENGYUN 1C DEB SSO 2024-06-27 00:03:27 0.001222858 30.0 (m) DEBRIS

Associated space launch

Poppy was the follow-on ELINT system, which succeeded the Grab ELINT satellite system.

THORAD AGENA D DEB was lifted into orbit during the mission ‘Thorad SLV-2G Agena D | Poppy 8A,B,C,D’, on board a Thorad SLV-2G Agena D space rocket.

The launch took place on Sept. 30, 1969, 1:40 p.m. from Space Launch Complex 1W.

For more information about the launch, click the button.

Launch to space Thorad SLV-2G Agena D | Poppy 8A,B,C,D
Thorad SLV-2G Agena D | Poppy 8A,B,C,D

Agency: N/A

Status: Launch Successful

Launch date: Sept. 30, 1969, 1:40 p.m. UTC

Rocket: Thorad SLV-2G Agena D

Launch pad: Space Launch Complex 1W

Location: Vandenberg SFB, CA, USA

...

Latest news about this satellite

There are no fresh news available about this satellite. Check back as we update our databases every day.


Newsletter sign-up

Weekly statistics, charts and insights to help you stay on top of the space industry.